Location: Janowice
(49.8979°N, 20.8851°E)
Time: 14:18:53
(UTC+01:00)

ISS - Visible Passes

Search period start: 17 December 2018 00:00
Search period end: 27 December 2018 00:00
Orbit: 401 x 408 km, 51.6° (Epoch: 18 December)

Date Brightness Start Highest point End Pass type
(mag) Time Alt. Az. Time Alt. Az. Time Alt. Az.
23 Dec -0.5 06:14:38 10° SSE 06:16:20 13° SE 06:18:01 10° ESE visible
25 Dec -1.5 06:05:13 10° SSW 06:07:58 25° SE 06:10:44 10° E visible
26 Dec -0.9 05:13:48 10° S 05:15:54 16° SE 05:18:00 10° E visible
26 Dec -3.4 06:48:39 10° WSW 06:51:55 66° SSE 06:55:11 10° ENE visible
